Вернуться в каталог

STARLINK-1458

АктивенСвязьVLEO
NORAD 45675·PAYLOAD·🇺🇸 United States

Запущен Jun 4, 2020 с Cape Canaveral Space Force Station

Loading…

Ближайшие Пролёты (ближайшие 24 часа)

TLE

СвежийSource: CelesTrak SupGP

Эпоха: Sep 15, 2026, 01:49 UTC

1 45675C 20035U   26258.07618056  .00066148  00000+0  40993-3 0  2583
2 45675  53.0394 214.1049 0005462  77.5975 135.4540 15.76303525    11

Отслеживайте STARLINK-1458 в реальном времени с AllMySat

Download on the App Store